Regional Weather Roundup
Issued by NWS Cleveland, OH

Home | Current Version | Previous Version | Graphics & Text | Print | Product List | Glossary On
Versions: 1 2 3 4 5 6 7 8 9 10 11 12 13 14 15 16 17 18 19 20 21 22 23 24 25 26 27 28 29 30 31 32 33 34 35 36 37 38 39 40 41 42 43 44 45 46 47 48 49 50
000
ASUS41 KCLE 021702
RWRCLE
OHIO REGIONAL WEATHER ROUNDUP
NATIONAL WEATHER SERVICE CLEVELAND, OH
100 PM EDT WED SEP 02 2015

NOTE: "FAIR" INDICATES FEW OR NO CLOUDS BELOW 12,000 FEET WITH NO
SIGNIFICANT WEATHER AND/OR OBSTRUCTIONS TO VISIBILITY.

OHZ001>008-015>018-024>027-034-035-043-044-021800-
   NORTHWEST OHIO

CITY           SKY/WX    TMP DP  RH WIND       PRES   REMARKS
DEFIANCE       SUNNY     86  72  62 SW7       30.07F HX  92
FINDLAY        PTSUNNY   83  70  64 SW8       30.07F
TOLEDO EXPRESS MOSUNNY   82  70  66 S10       30.06F
TOLEDO EXEC    PTSUNNY   78  71  79 SW7       30.06F
LIMA           MOSUNNY   82  70  66 VRB3      30.10F
$$

OHZ009>014-019>023-028>033-038-089-021800-
   NORTHEAST OHIO

CITY           SKY/WX    TMP DP  RH WIND       PRES   REMARKS
CLE-HOPKINS    MOSUNNY   84  69  60 SW9       30.08F
CLE-LAKEFRONT  SUNNY     81  71  71 W9        30.06F
CUY CO. ARPT   MOSUNNY   86  72  62 NW12      30.07F HX  92
LORAIN-ELYRIA  PTSUNNY   85  70  60 SW12      30.07F
ASHTABULA      MOSUNNY   85  68  56 W7        30.07F
AKRON-CANTON   MOSUNNY   86  66  51 SW7       30.09F
WOOSTER        MOSUNNY   85  68  56 SW7       30.09F
MANSFIELD      SUNNY     84  68  58 SW8       30.10F
YOUNGSTOWN     MOSUNNY   83  66  56 VRB3      30.08F
$$

OHZ042-051>053-060>062-070>072-077>081-021800-
  SOUTHWEST OHIO

CITY           SKY/WX    TMP DP  RH WIND       PRES   REMARKS
CINC-COVINGTON MOSUNNY   86  68  54 VRB3      30.13F
CINC-LUNKEN    MOSUNNY   85  69  58 CALM      30.11F
HAMILTON       MOSUNNY   87  71  58 W7        30.12F HX  93
DAYTON         MOSUNNY   86  71  60 W9        30.12F HX  91
WRIGHT-PAT AFB MOSUNNY   82  73  73 SW6       30.11F
DAYTON GENERAL SUNNY     83  70  64 VRB5      30.12F
WILMINGTON     PTSUNNY   74  68  81 E7G18     30.14S
$$

OHZ036-037-039>041-045>050-054>059-063>069-073>076-082>088-021800-
  CENTRAL AND SOUTHEAST OHIO

CITY           SKY/WX    TMP DP  RH WIND       PRES   REMARKS
COLUMBUS       PTSUNNY   83  68  60 W9        30.10F
OSU AIRPORT    SUNNY     82  69  64 SW8       30.11F
BOLTON FIELD   SUNNY     81  72  74 SW9       30.13F
RICKENBACK AFB MOSUNNY   80  68  67 W9        30.11F
NEWARK         SUNNY     84  65  52 W12       30.10F
MARION         MOSUNNY   83  69  62 W7        30.10F
LANCASTER      MOSUNNY   84  67  56 W10       30.12F
ZANESVILLE     SUNNY     86  66  51 W7        30.10F
NEW PHILLY     MOSUNNY   86  67  52 VRB3      30.09F
$$


USA.gov is the U.S. government's official web portal to all federal, state and local government web resources and services.